Regional Weather Roundup
Issued by NWS

Home | Current Version | Previous Version | Text Only | Print | Product List | Glossary Off
Versions: 1 2 3 4 5 6 7 8 9 10 11 12 13 14 15 16 17 18 19 20 21 22 23 24 25 26 27 28 29 30 31 32 33 34 35 36 37 38 39 40 41 42 43 44 45 46 47 48 49 50

000
ASUS43 KOAX 220110
RWRNE

WEATHER ROUNDUP FOR NEBRASKA
NATIONAL WEATHER SERVICE OMAHA NE
800 PM CDT TUE MAR 21 2017

NOTES: SATELLITE DATA IS BEING USED TO AUGMENT CLOUD COVER ABOVE
       12000 FEET.
       "FAIR" INDICATES FEW OR NO CLOUDS BELOW 12,000 FEET WITH NO
       SIGNIFICANT WEATHER AND/OR OBSTRUCTIONS TO VISIBILITY.

  * THESE STATIONS DO NOT REPORT WEATHER SUCH AS RAIN...SNOW OR FOG.

NEZ001>004-019>022-054>056-220200-
NEBRASKA PANHANDLE

CITY           SKY/WX    TMP DP  RH WIND       PRES   REMARKS
SCOTTSBLUFF    CLOUDY    53  30  41 SE15G26   30.12R
ALLIANCE       CLOUDY    46  27  47 E16G31    30.16R
CHADRON        PTCLDY    39  32  76 E16       30.19R WCI  30
KIMBALL        CLOUDY    53  35  51 SE18      30.13R
SIDNEY         PTCLDY    50  26  39 SE22G32   30.14F
$$

NEZ057>060-069>072-079>082-220200-
SOUTHWEST NEBRASKA

CITY           SKY/WX    TMP DP  RH WIND       PRES   REMARKS
NORTH PLATTE   PTCLDY    40  32  73 E14       30.31R WCI  32
IMPERIAL       PTCLDY    50  23  34 SE10      30.25R
LEXINGTON      CLOUDY    42  32  68 E14       30.33R
MCCOOK         PTCLDY    48  34  58 E18G29    30.25R
OGALLALA       CLOUDY    51  27  39 E15       30.24R
$$

NEZ005>010-023>029-035>040-094-220200-
NORTH CENTRAL NEBRASKA

CITY           SKY/WX    TMP DP  RH WIND       PRES   REMARKS
VALENTINE      CLOUDY    31  25  78 E12       30.36S WCI  22
AINSWORTH      CLOUDY    31  28  88 E6        30.37R WCI  26
O`NEILL        CLOUDY    34  31  90 NW3       30.40R
ORD            CLOUDY    37  24  59 NE10      30.36R WCI  30
THEDFORD       CLOUDY    36  30  80 E12       30.34S WCI  27
$$

NEZ041-046>049-061>064-073>077-083>087-220200-
SOUTH CENTRAL NEBRASKA

CITY           SKY/WX    TMP DP  RH WIND       PRES   REMARKS
GRAND ISLAND   CLOUDY    40  27  59 NE14      30.36R WCI  32
AURORA         PTCLDY    39  27  62 NE9       30.35R WCI  33
HASTINGS       PTCLDY    42  30  62 NE14      30.34R
HEBRON         CLOUDY    45  32  61 NE12G17   30.32R
HOLDREGE       PTCLDY    42  32  68 NE15      30.32R
KEARNEY *      CLOUDY    43  28  56 E14       30.34R
YORK           CLEAR     39  23  52 NE13      30.36R WCI  32
$$

NEZ011>018-030>034-042>045-220200-
NORTHEAST NEBRASKA

CITY           SKY/WX    TMP DP  RH WIND       PRES   REMARKS
NORFOLK        CLOUDY    39  24  55 NE6       30.38R WCI  35
ALBION         PTCLDY    38  27  64 NE8       30.38R WCI  32
BLAIR          CLOUDY    43  28  55 N8        30.37R
FREMONT        CLOUDY    43  26  51 N3        30.39R
TEKAMAH        CLOUDY    42  30  62 N3        30.39R
WAYNE          CLOUDY    39  28  63 NE8       30.40R WCI  33
$$

NEZ050>053-065>068-078-088>093-220200-
SOUTHEAST NEBRASKA

CITY           SKY/WX    TMP DP  RH WIND       PRES   REMARKS
LINCOLN        PTCLDY    41  25  53 N12       30.38R
OMAHA EPPLEY   MOCLDY    47  24  40 NE8       30.38R
BEATRICE       PTCLDY    45  28  51 NE9       30.33R
FALLS CITY     PTCLDY    48  23  37 NE12      30.32R
NEBRASKA CITY  CLEAR     43  20  40 NE10      30.35R
PLATTSMOUTH    CLOUDY    44  24  46 N7        30.36R
$$

NEZ044-045-051>053-067-220200-
OMAHA AREA

CITY           SKY/WX    TMP DP  RH WIND       PRES   REMARKS
OMAHA EPPLEY   MOCLDY    47  24  40 NE8       30.38R
BLAIR          CLOUDY    43  28  55 N8        30.37R
FREMONT        CLOUDY    43  26  51 N3        30.39R
MILLARD        CLOUDY    46  29  52 CALM      30.37S
OFFUTT AFB     CLOUDY    44  23  44 NE6       30.37R
PLATTSMOUTH    CLOUDY    44  24  46 N7        30.36R
WAHOO          CLOUDY    41  27  56 N6        30.38R
$$




USA.gov is the U.S. government's official web portal to all federal, state and local government web resources and services.